Location: Poughquag
(41.6090°N, 73.6820°W)
Time: 14:54:11
(UTC-04:00)

Vanguard 2 - Pass Details

Date: 06 June 2020
Orbit: 552 x 2938 km, 32.9° (Epoch: 06 July)

Event Time Altitude Azimuth Distance (km) Brightness Sun altitude
Rises 19:35:29 0° 257° (WSW) 6,570 13.2 7.6°
Reaches altitude 10° 19:40:19 10° 254° (WSW) 5,332 12.7 6.8°
Maximum altitude 19:54:34 55° 182° (S) 2,198 9.8 4.4°
Drops below altitude 10° 20:03:23 10° 107° (ESE) 3,407 10.2 2.9°
Sets 20:05:48 0° 103° (ESE) 4,117 10.6 2.5°
